Lexington Weather

Lexington, Massachusetts, USA

34°F
1/25/2021 12:41pm 
  • Lexington Conditions: Clear
  • Temperature: 34.0°F / 1.1°CWarmer 2.2°F than last hour.
  • Dew Point: 9.1°FDecreased 1.7°Fsince last hour.
  • Relative Humidity: 35%Decreased 6.0% since last hour.
  • Wind: Wind from N N 2 mph, 10-min avg: 4 mph, gust: 9 mph
  • Barometer: 29.97 in Steady
  • Visibility: 10 miles
  • Snow Today: 0.0 in
  •   

Regional Weather Roundup
for Boston / Norton, MA

        
000
ASUS41 KBOX 240204
RWRBOX

REGIONAL WEATHER ROUNDUP
NATIONAL WEATHER SERVICE BOSTON/NORTON MA
900 PM EST SAT JAN 23 2021

NOTE:  "FAIR" INDICATES FEW OR NO CLOUDS BELOW 12,000 FEET WITH NO 
SIGNIFICANT WEATHER AND/OR OBSTRUCTIONS TO VISIBILITY.

MAZALL-240300-
EASTERN MASSACHUSETTS
  
CITY           SKY/WX    TMP DP  RH WIND       PRES   REMARKS
BOSTON         CLEAR     20   2  45 NW18G30   29.97R WCI   5          
BEVERLY        CLEAR     20   4  50 NW15G28   29.94R WCI   6          
LAWRENCE       CLEAR     18   4  54 NW12G20   29.98R WCI   5          
BEDFORD        CLEAR     19   2  47 NW17G29   29.97R WCI   4          
BLUE HILL        N/A     18   3  52 NW21G40   29.90R WCI   1          
NORWOOD        CLEAR     22   2  42 NW18G35   29.97R WCI   7          
MARSHFIELD     CLEAR     23   3  42 NW15G26   29.94R WCI  10          
PLYMOUTH       CLEAR     22   4  46 NW21G26   29.92S WCI   6          
TAUNTON        CLEAR     23   4  44 W8G22     29.95R WCI  14          
NEW BEDFORD    CLEAR     23   5  46 W15G23    29.95R WCI  10          
$$

MAZALL-240300-
CAPE COD AND THE ISLANDS
  
CITY           SKY/WX    TMP DP  RH WIND       PRES   REMARKS
FALMOUTH       CLEAR     21   5  49 NW20G29   29.92  WCI   6          
HYANNIS        CLEAR     24   5  44 NW17G30   29.90R WCI  11          
CHATHAM        MOCLDY    25   6  44 NW9G26    29.91R WCI  15          
PROVINCETOWN   MOCLDY    23  13  65 NW30G41   29.91R WCI   5          
NANTUCKET      CLEAR     24   8  50 NW21G33   29.91R WCI   9          
MARTHAS VNYRD  CLEAR     24   6  46 NW20G31   29.93S WCI  10          
$$
 
MAZALL-240300-
CENTRAL AND WESTERN MASSACHUSETTS
  
CITY           SKY/WX    TMP DP  RH WIND       PRES   REMARKS
WORCESTER      CLEAR     16   2  54 NW20      29.92R WCI  -1          
FITCHBURG      CLEAR     18   2  49 NW18G31   29.99R WCI   2          
ORANGE         CLEAR     17   2  51 NW16G25   30.01R WCI   2          
SPRINGFIELD    NOT AVBL                                               
WESTFIELD      CLEAR     18   3  52 NW18G31   30.05S WCI   2          
NORTH ADAMS    CLEAR     14   3  61 W20G28    30.07S WCI  -3          
PITTSFIELD     CLEAR     12   2  64 NW15G33   30.02R WCI  -4          
$$
 
RIZALL-240300-
RHODE ISLAND
  
CITY           SKY/WX    TMP DP  RH WIND       PRES   REMARKS
PROVIDENCE     CLEAR     21   3  45 NW14G23   30.00R WCI   8          
NEWPORT        CLEAR     21   5  50 NW18G29   29.97S WCI   6          
BLOCK ISLAND   CLEAR     22   5  48 NW23G32   30.02R WCI   6          
SMITHFIELD     CLEAR     19   5  54 NW16G25   29.96R WCI   4          
WESTERLY       CLEAR     20   1  43 NW14G25   30.02R WCI   7          
$$
 
CTZALL-240300-
CONNECTICUT
  
CITY           SKY/WX    TMP DP  RH WIND       PRES   REMARKS
BRADLEY INTL   PTCLDY    19   3  49 NW18G32   30.07S WCI   4          
HARTFORD       CLEAR     21   2  43 NW15G22   30.10R WCI   8          
BRIDGEPORT     CLEAR     25   2  37 NW13      30.12R WCI  14          
DANBURY        CLEAR     22   2  42 W7G17     30.11R WCI  13          
GROTON         CLEAR     22   1  40 NW21G31   30.04R WCI   6          
NEW HAVEN      CLEAR     26   2  35 NW13G24   30.10R WCI  15          
CHESTER        FAIR      21  -2  35 NW13G31   30.04R WCI   9          
MERIDEN        FLURRIES  22   1  40 NW22G31   30.10R WCI   6          
WILLIMANTIC    CLEAR     19   3  49 NW10G25   30.05S WCI   7          
OXFORD         CLEAR     20   4  50 NW8G17    30.06R WCI  10          
$$

MEZ002-015-021-024-NHZ003-005-008-011-012-014-VTZ005-008-240300-
NORTHERN NEW ENGLAND
  
CITY           SKY/WX    TMP DP  RH WIND       PRES   REMARKS
PORTLAND ME    CLEAR     15   1  53 NW16G23   29.88R WCI  -1          
BANGOR ME      CLEAR     13   0  56 W10       29.74F WCI   0          
CONCORD NH     CLEAR     13   0  56 NW18G31   29.97R WCI  -4          
MANCHESTER NH  CLEAR     18   1  47 NW23G36   29.96R WCI   0          
NASHUA NH      PTCLDY    17   3  54 NW14G26   30.00R WCI   3          
PORTSMOUTH NH  NOT AVBL                                               
JAFFREY NH     PTCLDY    13   0  56 NW8       29.95R WCI   2          
KEENE NH       CLEAR     13   2  61 CALM      30.04R                  
BURLINGTON VT  CLOUDY    11  -1  58 NW14      30.14S WCI  -5          
MT. WASHINGTON BLWGSNOW -18 -18 100 NW91G99     N/A  VSB 0   WCI -64  
$$

NYZ052-076-240300-
EASTERN NEW YORK
  
CITY           SKY/WX    TMP DP  RH WIND       PRES   REMARKS
ALBANY         PTCLDY    12   3  67 W14G21    30.18R WCI  -3          
NEW YORK CITY  CLEAR     28   9  44 NW26G33   30.17R WCI  13          
$$
 
ANZALL-240300-
MARINE OBSERVATIONS
  
STATION/POSITION TIME  TEMP    WIND        PRES    VSBY  WAVE
                       AIR SEA DIR/SP/G                  HT/PER
                 (UTC) (F)     (DEG/KT/KT) (MB)    (MI)  (FT/S)
BOSTON BUOY      0140   24 42  300/ 27/ 37 1014.0R
BUZZARDS BAY     0100          300/ 25/ 28 1015.5R
NANTUCKET SOUND  0140      39  290/ 23/ 31   N/A
MASS BAY-STELLWA 0104   24     310/ 25/ 35 1011.6R  1 7/8  4/ 5
ISLE OF SHOALS   0100   18     300/ 35/ 40 1011.2R
S OF BLOCK IS    0126      47                N/A           8/ 6
$$

......................KEY.........................
  SKY/WX - SKY CONDITION/PRESENT WEATHER
  TMP    - TEMPERATURE IN FAHRENHEIT
  DWPT   - DEWPOINT IN FAHRENHEIT
  RH     - RELATIVE HUMIDITY IN PERCENT
  WIND   - DIRECTION AND SPEED IN MPH
  PRES   - MEAN SEA LEVEL PRESSURE IN INCHES OF HG
  WCI    - WIND CHILL INDEX
  VSB    - VISIBILITY IN MILES
  HX     - HEAT INDEX
  TC     - TEMPERATURE IN CELSIUS
  VRB    - VARIABLE WIND DIRECTION
  N/A    - NOT AVAILABLE
  
      

Other recent Regional Weather Roundups

Mon Jan 25, 10:04am

Mon Jan 25, 9:04am

Mon Jan 25, 8:05am

Mon Jan 25, 6:04am

Mon Jan 25, 5:04am

Mon Jan 25, 4:04am

Mon Jan 25, 3:04am

Mon Jan 25, 2:04am

Mon Jan 25, 1:04am

Sun Jan 24, 11:04pm

Sun Jan 24, 10:04pm

Sun Jan 24, 9:04pm

Sun Jan 24, 6:04pm

Sun Jan 24, 5:04pm

Sun Jan 24, 4:05pm

Sun Jan 24, 3:05pm

Sun Jan 24, 2:05pm

Sun Jan 24, 1:04pm

Sun Jan 24, 12:04pm

Sun Jan 24, 11:04am

Sun Jan 24, 10:04am

Sun Jan 24, 9:04am

Sun Jan 24, 8:04am

Sun Jan 24, 7:04am

Sun Jan 24, 6:04am

Sun Jan 24, 5:04am

Sun Jan 24, 4:04am

Sun Jan 24, 3:04am

Sun Jan 24, 2:04am

Sun Jan 24, 1:04am

Sun Jan 24, 12:04am

Sat Jan 23, 11:04pm

Sat Jan 23, 10:04pm

Sat Jan 23, 8:04pm

Sat Jan 23, 7:04pm

Sat Jan 23, 6:04pm

Sat Jan 23, 5:04pm

Sat Jan 23, 4:05pm

Sat Jan 23, 3:05pm

Sat Jan 23, 2:05pm

Sat Jan 23, 12:04pm

Sat Jan 23, 11:04am

Sat Jan 23, 10:04am

Sat Jan 23, 9:04am

Sat Jan 23, 8:04am

Sat Jan 23, 7:04am

Sat Jan 23, 6:04am

Sat Jan 23, 5:04am

Sat Jan 23, 4:04am

Meta data:

ID: 3c080843-57a3-4ec4-af90-8ad705c81f20
Link: https://api.weather.gov/products/3c080843-57a3-4ec4-af90-8ad705c81f20